Вернуться в каталог

COSMOS 1275 DEB

АктивенPO
NORAD 42217·DEBRIS·🇷🇺 Russia

Запущен Jun 4, 1981 с Plesetsk Cosmodrome

Loading…

Ближайшие Пролёты (ближайшие 24 часа)

TLE

СвежийSource: Space-Track

Эпоха: Sep 12, 2026, 02:58 UTC

1 42217U 81053UH  26255.12423479  .00000648  00000-0  67673-3 0  9995
2 42217  83.0321 305.5122 0118607 359.8439  29.4230 13.70862833639051

Отслеживайте COSMOS 1275 DEB в реальном времени с AllMySat

Download on the App Store